TIME,DELAY(SENSOR),PRES,T(CTD),SAL,OXYGEN,RAWTEMP,T(OPTODE),TCPHASE,FLUOR,BETA(BETA700),BETA(BETA412),BETA(BETA440),CDOM,C(CSC),ED(ED411.90),ED(ED443.80),ED(ED489.40),ED(ED554.70),LU(LU412.20),LU(LU443.80),LU(LU489.40),LU(LU555.00),COMP,TILTX,TILTX(TILTY),CHECK
1346339653,5807,497.1600036621094000,17.8339996337890620,36.5257987976074200,236.9647979736328000,160.8686981201172000,17.8286094665527340,30.7148609161376950,51,100,97,79,66,13619,2146952859,2147512475,2147267437,2147461248,2147086857,2146952091,2147655588,2147123529,1378,-2,8,26288
1346339770,5805,485.5100097656250000,17.9146995544433600,36.5400009155273440,237.6784973144531200,158.2053070068359400,17.9090194702148440,30.6450996398925780,51,101,97,80,66,13615,2146952758,2147512502,2147262756,2147461906,2147083154,2146953097,2147653074,2147125741,1127,-2,8,53060
1346339873,5805,475.2099914550781000,17.9454002380371100,36.5466995239257800,237.7604064941406200,157.1114959716797000,17.9420509338378900,30.6267700195312500,51,101,98,80,67,13618,2146954450,2147515392,2147264923,2147465380,2147085906,2146958180,2147651739,2147125906,1352,-2,8,16545
1346339988,5803,463.5799865722656000,17.9745006561279300,36.5504989624023440,237.5695953369140600,156.2171936035156200,17.9690608978271500,30.6238193511962900,50,99,97,80,65,13613,2146955529,2147512173,2147264658,2147460955,2147088109,2146957019,2147654144,2147122788,1492,-3,8,64777
1346340106,5805,453.1000061035156000,17.9811000823974600,36.5525016784668000,237.7566986083984400,156.0157928466797000,17.9751396179199220,30.6121101379394530,50,99,97,79,66,13615,2146952475,2147513865,2147263067,2147462701,2147081526,2146960466,2147652525,2147123520,1080,-3,8,21376
1346340245,5806,443.1000061035156000,18.0228004455566400,36.5564994812011700,237.0729980468750000,154.6094055175781200,18.0176105499267580,30.6260509490966800,50,100,98,80,65,13615,2146952466,2147514038,2147261988,2147459602,2147086198,2146961142,2147649170,2147122852,1098,-2,8,56490
1346340413,5806,429.9599914550781000,18.0835990905761720,36.5616989135742200,235.6652984619140600,152.3303985595703000,18.0864391326904300,30.6629009246826170,50,103,98,79,67,13613,2146951442,2147512283,2147264146,2147459337,2147083017,2146961810,2147651382,2147124123,681,-3,8,49677
1346340528,5807,419.1400146484375000,18.1685009002685550,36.5732002258300800,235.1856994628906200,149.7021026611328000,18.1658401489257800,30.6507892608642580,50,103,98,81,67,13611,2146952905,2147513270,2147261888,2147459428,2147089444,2146955017,2147651858,2147117257,266,-2,8,9209
1346340643,5801,408.5100097656250000,18.2262992858886720,36.5796012878418000,234.9640045166015600,147.8921966552734400,18.2205200195312500,30.6372509002685550,50,102,98,80,67,13612,2146954825,2147514038,2147264877,2147460260,2147083318,2146960859,2147652589,2147123328,3461,-2,8,31337
1346340772,5806,396.7600097656250000,18.3015995025634770,36.5853004455566400,233.5225982666015600,145.2514038085937500,18.3003196716308600,30.6717300415039060,50,103,98,78,66,13609,2146950409,2147512859,2147264841,2147461696,2147087387,2146962377,2147650660,2147123072,3439,-2,8,63461
1346340887,5804,386.5199890136719000,18.3624992370605470,36.5922012329101560,232.4613037109375000,143.2630004882812500,18.3604106903076170,30.6967296600341800,51,104,98,81,65,13607,2146952941,2147514706,2147266715,2147459108,2147079570,2146954550,2147652598,2147122112,3373,-2,8,23940
1346341016,5805,375.1199951171875000,18.4577007293701170,36.5984001159668000,230.4203948974609400,140.1481018066406200,18.4545707702636720,30.7550601959228500,50,105,97,80,67,13607,2146954450,2147514441,2147263990,2147460928,2147082258,2146955675,2147650395,2147124434,3287,-2,8,48820
1346341143,5805,364.1199951171875000,18.5604991912841800,36.6041984558105500,228.6412963867187500,136.3820953369140600,18.5684299468994140,30.7924995422363280,51,104,97,79,67,13608,2146954706,2147513380,2147262025,2147457078,2147079360,2146959926,2147651355,2147122368,3497,-2,8,22493
1346341270,5808,353.5100097656250000,18.7217998504638670,36.6155014038085940,226.4960937500000000,131.5733947753906200,18.7138690948486330,30.8353404998779300,51,106,96,79,66,13604,2146954148,2147514742,2147265060,2147457965,2147087122,2146961078,2147650294,2147124973,3584,-2,8,23573
1346341399,5805,342.9400024414062500,18.8437004089355470,36.6253013610839840,225.2304992675781200,127.4461975097656200,18.8387508392334000,30.8436698913574220,54,105,97,80,65,13602,2146954706,2147514112,2147265764,2147456566,2147079561,2146964580,2147650989,2147122496,3215,-2,8,61894
1346341538,5804,331.7099914550781000,18.9958992004394530,36.6277008056640600,226.6616058349609400,122.4684982299804700,18.9894199371337900,30.7057800292968750,55,103,98,79,66,13607,2146958345,2147510610,2147265325,2147459081,2147083181,2146962203,2147647707,2147125129,3330,-2,8,45479
1346341679,5806,320.5100097656250000,19.1520996093750000,36.6329002380371100,227.2819061279297000,117.4498977661132800,19.1413898468017580,30.6084003448486330,57,104,97,80,66,13605,2146953270,2147510418,2147264557,2147458724,2147082532,2146960694,2147649764,2147121673,576,-3,8,29392
1346341830,5805,309.7799987792969000,19.2472000122070300,36.5882987976074200,240.7203063964843800,114.0728988647461000,19.2436904907226560,29.9195709228515620,51,103,99,79,65,13609,2146955648,2147514294,2147271908,2147454866,2147082669,2146960676,2147653174,2147122404,337,-2,8,58127
1346342001,5806,297.2900085449219000,19.3220996856689450,36.5852012634277340,249.8905944824218800,111.6074981689453100,19.3183994293212900,29.4724903106689450,53,103,98,80,64,13603,2146951817,2147513142,2147271835,2147454043,2147081307,2146964361,2147650870,2147123099,533,-2,8,18416
1346342116,5808,286.6700134277344000,19.3682994842529300,36.5858001708984400,251.5328063964843800,110.1295013427734400,19.3631896972656250,29.3809108734130860,56,104,98,80,63,13599,2146952896,2147516187,2147271661,2147454930,2147083730,2146960996,2147652982,2147124169,911,-2,8,48487
1346342245,5804,274.5199890136719000,19.4353008270263670,36.5833015441894500,250.3302001953125000,107.6990966796875000,19.4368705749511720,29.4023895263671880,64,106,97,82,63,13592,2146954331,2147514678,2147281792,2147453723,2147081874,2146967186,2147659876,2147123766,1008,-2,8,27803
1346342360,5805,263.4100036621094000,19.7523994445800780,36.6161994934082000,248.8199005126953000,96.8439331054687500,19.7661495208740230,29.3294391632080080,61,106,98,80,65,13592,2146951542,2147517778,2147291977,2147453092,2147081901,2146966528,2147655762,2147122825,1538,-2,8,40034
1346342475,5807,251.9199981689453000,19.9710998535156250,36.6509017944335940,237.6571044921875000,91.4279174804687500,19.9305896759033200,29.7677402496337900,62,104,98,80,66,13593,2146950619,2147523099,2147307940,2147453814,2147088813,2146972342,2147665673,2147123163,1825,-2,8,4553
1346342580,5804,241.3899993896484400,20.1791992187500000,36.6610984802246100,241.5225982666015600,83.3914413452148400,20.1747798919677730,29.4850807189941400,53,103,97,82,66,13601,2146954642,2147526610,2147312137,2147450578,2147086829,2146970212,2147667913,2147124772,1954,-2,8,35168
1346342695,5802,230.1999969482422000,20.3045005798339840,36.6762008666992200,239.9927978515625000,79.2131423950195300,20.3018302917480470,29.5016708374023440,53,100,96,80,65,13606,2146954368,2147533869,2147328722,2147449810,2147082880,2146972123,2147676571,2147124443,2304,-2,7,44302
1346342822,5804,218.7400054931640600,20.4983997344970700,36.6898002624511700,239.0444946289062500,72.9471130371093800,20.4924793243408200,29.4647693634033200,52,101,98,80,65,13607,2146950546,2147539931,2147357394,2147450806,2147087104,2146981074,2147688246,2147130898,1430,-2,8,12738
1346342939,5804,208.6999969482422000,20.7138004302978500,36.7130012512207000,237.6905975341797000,65.1789321899414000,20.7290592193603500,29.4279003143310550,52,102,97,79,65,13610,2146956882,2147553810,2147389330,2147449517,2147088969,2146991140,2147705508,2147126080,1378,-2,8,54492
1346343078,5807,197.8500061035156200,20.9976997375488280,36.7326011657714840,229.4461059570312500,56.7250595092773440,20.9867992401123050,29.7094993591308600,52,101,96,81,65,13606,2146954605,2147573330,2147433152,2147447698,2147089206,2147000731,2147726674,2147129883,1397,-3,8,10361
1346343133,5803,193.9900054931640600,20.9118003845214840,36.6986007690429700,234.7073059082031200,58.7655792236328100,20.9245605468750000,29.4850502014160160,53,104,97,80,65,13607,2146959798,2147588434,2147466304,2147446747,2147090368,2147016128,2147747126,2147132150,1179,-2,9,11548
1346343209,5804,189.1799926757812500,20.9678993225097660,36.6431999206543000,248.3379058837890600,57.6244506835937500,20.9593601226806640,28.8509693145751950,54,101,98,81,65,13599,2146961947,2147599195,2147495990,2147447424,2147092315,2147021220,2147757421,2147133193,1241,-3,8,4793
1346343288,5805,185.6699981689453000,21.4542999267578120,36.7358016967773440,238.6782989501953000,42.2753295898437500,21.4280605316162100,29.0900001525878900,56,103,99,81,65,13604,2146964781,2147601892,2147506029,2147443584,2147091748,2147030857,2147761846,2147133211,528,-2,8,471
1346343379,5807,181.7799987792968800,21.5576000213623050,36.7290992736816400,236.7646942138672000,38.6228981018066400,21.5397491455078120,29.1319408416748050,56,102,98,82,65,13591,2146964470,2147608146,2147511277,2147445348,2147093129,2147024100,2147763126,2147133184,6,-2,8,3249
1346343470,5808,177.5000000000000000,21.6501007080078120,36.7265014648437500,234.9440002441406200,35.2283287048339840,21.6436195373535160,29.1735191345214840,57,103,97,80,64,13601,2146964608,2147608868,2147504265,2147442861,2147094957,2147025033,2147762880,2147133961,20,-2,8,36132
1346343551,5803,173.4799957275390600,21.7299003601074220,36.7243003845214840,234.4053955078125000,32.5566215515136700,21.7254009246826170,29.1648292541503900,59,103,99,81,65,13600,2146970733,2147620434,2147533513,2147443209,2147094436,2147032649,2147774262,2147131949,3169,-3,8,64518
1346343630,5805,169.7200012207031200,21.8584995269775400,36.7332000732421900,233.3861999511718800,29.1450290679931640,21.8298797607421880,29.1691093444824220,61,105,97,81,64,13596,2146973622,2147637074,2147574610,2147442962,2147098377,2147051584,2147798043,2147131556,2805,-2,8,60374
1346343721,5803,165.6399993896484400,21.9351005554199220,36.7402000427246100,231.6938934326172000,25.5025291442871100,21.9414997100830080,29.2025604248046880,62,105,96,80,64,13592,2146977901,2147660352,2147635757,2147441444,2147099958,2147064182,2147825408,2147138176,2990,-3,8,17611
1346343824,5804,161.9100036621093800,22.0828990936279300,36.7425003051757800,229.1627960205078000,21.3202991485595700,22.0697498321533200,29.2698802947998050,66,106,98,82,65,13601,2146984320,2147679497,2147675099,2147443254,2147102884,2147075364,2147841014,2147139181,2612,-3,8,40235
1346343965,5807,158.2899932861328000,22.2632007598876950,36.7440986633300800,227.0462036132812500,15.5726604461669920,22.2461395263671880,29.2987899780273440,70,104,98,82,64,13591,2146989165,2147696146,2147703844,2147441270,2147105462,2147084096,2147852489,2147137828,1930,-3,9,62117
1346344164,5804,154.4199981689453000,22.4109992980957030,36.7386016845703100,225.9102935791015600,10.4065599441528320,22.4048404693603500,29.2882308959960940,76,105,100,82,65,13589,2146995218,2147719744,2147741394,2147438930,2147110720,2147094592,2147867913,2147138770,2331,-2,8,31664
1346344300,5804,149.8000030517578000,22.5305995941162100,36.7397003173828100,231.5411987304687500,6.6669878959655760,22.5198001861572270,28.9712390899658200,70,108,99,82,64,13586,2147010258,2147759844,2147826057,2147440676,2147118116,2147121380,2147905261,2147143387,836,-2,8,4057
1346344391,5805,145.7100067138672000,22.7024002075195300,36.7431983947753900,230.0567932128906200,1.6620759963989258,22.6737899780273440,28.9782905578613280,82,109,98,80,65,13578,2147026788,2147813558,2147923684,2147438518,2147123547,2147149833,2147950253,2147148105,433,-3,8,15555
1346344494,5804,141.7700042724609400,22.7936000823974600,36.7438011169433600,233.7530059814453000,-1.7779289484024048,22.7797203063964840,28.7613792419433600,89,110,98,82,64,13570,2147040704,2147866313,2148034029,2147440429,2147135853,2147180013,2147998546,2147147812,536,-3,8,6990
1346344597,5808,137.7799987792968800,23.0069999694824220,36.7411003112793000,232.9472961425781200,-8.4669466018676760,22.9858798980712900,28.7148094177246100,91,112,98,82,64,13566,2147059547,2147915382,2148133869,2147444224,2147140187,2147208155,2148038189,2147149641,720,-2,8,31374
1346344700,5808,134.1900024414062500,23.0790996551513670,36.7410011291503900,232.0973968505859400,-11.0784702301025390,23.0664405822753900,28.7216892242431640,92,113,99,83,64,13564,2147079396,2147969426,2148239433,2147440237,2147150994,2147229622,2148081472,2147152585,536,-2,8,33423
1346344803,5807,130.9900054931640600,23.2437000274658200,36.7344017028808600,232.2310943603515600,-16.4633007049560550,23.2326793670654300,28.6479396820068360,103,115,99,83,65,13556,2147102125,2148023707,2148336502,2147444498,2147162102,2147254966,2148117805,2147159881,271,-3,8,64631
1346344918,5804,126.4000015258789000,23.4004993438720700,36.7223014831543000,228.8034973144531200,-21.6276302337646500,23.3922901153564450,28.7444496154785160,102,122,98,82,65,13542,2147155382,2148160054,2148581869,2147443108,2147182345,2147321444,2148217718,2147166555,2471,-3,8,3457
1346344997,5805,122.0899963378906200,23.4587001800537100,36.7210998535156250,226.4725036621093800,-23.7987594604492200,23.4594402313232420,28.8283500671386720,107,118,100,84,65,13545,2147223963,2148310692,2148831771,2147449243,2147214125,2147388288,2148314148,2147176265,1699,-3,8,49697
1346345064,5806,118.3700027465820300,23.5753993988037100,36.7210998535156250,225.5090026855468800,-27.2939395904541000,23.5676002502441400,28.8307495117187500,112,117,99,83,65,13539,2147290825,2148463670,2149090596,2147452635,2147240173,2147460324,2148414884,2147182400,1448,-3,9,31340
1346345143,5803,114.4100036621093800,23.6555004119873050,36.7220993041992200,231.6080932617187500,-29.9029006958007800,23.6483898162841800,28.5088901519775400,117,117,99,85,64,13541,2147376018,2148655945,2149406619,2147460580,2147282441,2147547584,2148535213,2147192987,1173,-2,8,33399
1346345236,5807,111.0000000000000000,23.7457008361816400,36.7209014892578100,234.3433990478515600,-32.7672805786132800,23.7371292114257800,28.3465595245361330,120,119,99,83,63,13537,2147449828,2148806537,2149642724,2147467200,2147316781,2147614089,2148627291,2147199296,775,-3,8,7754
1346345387,5806,107.3300018310546900,23.8854999542236330,36.7164001464843750,225.7126007080078000,-37.2198715209960940,23.8751907348632800,28.6961898803710940,126,127,101,83,65,13526,2147549732,2148987190,2149928493,2147476617,2147352795,2147680804,2148719853,2147209737,2785,-3,8,24811
1346345549,5806,102.8199996948242200,24.1130008697509770,36.6898002624511700,230.8305969238281200,-44.8036499023437500,24.1106491088867200,28.3591709136962900,121,122,99,83,63,13528,2147755785,2149423588,2150665984,2147496694,2147444928,2147868251,2148997824,2147233563,2286,-3,8,64323
1346345652,5806,98.7399978637695300,24.2096996307373050,36.6847000122070300,236.4017028808593800,-47.7320594787597660,24.2016792297363280,28.0669403076171880,124,126,100,83,64,13524,2148026377,2149933266,2151434660,2147521901,2147567542,2148098285,2149301211,2147259748,1680,-2,8,28950
1346345707,5804,96.5999984741211000,24.3050994873046880,36.6731986999511700,236.4288940429687500,-50.2925300598144500,24.2813091278076170,28.0338096618652340,126,123,99,84,62,13519,2148188214,2150236553,2151863250,2147532315,2147642614,2148241929,2149466176,2147275501,1322,-2,8,55523
1346345762,5803,94.6399993896484400,24.3637008666992200,36.6562995910644500,236.4712982177734400,-51.3391494750976560,24.3138809204101560,28.0191001892089840,134,121,98,83,64,13516,2148367890,2150552704,2152281920,2147550646,2147716032,2148362834,2149622326,2147289920,1235,-2,8,11609
1346345841,5806,91.5899963378906200,24.4493999481201170,36.6431999206543000,229.9107971191406200,-55.5082092285156250,24.4436702728271500,28.2690391540527340,137,123,99,82,64,13506,2148741504,2151173677,2153102390,2147581979,2147864228,2148604352,2149899254,2147320685,1162,-3,8,33815
1346345896,5807,88.9599990844726600,24.5249996185302730,36.6297988891601560,224.9828033447265600,-58.6430397033691400,24.5413494110107420,28.4631595611572270,146,120,100,82,65,13502,2149094016,2151754011,2153846144,2147612370,2147989632,2148822354,2150152457,2147348516,711,-3,9,38680
1346345951,5804,86.8099975585937500,24.8054008483886720,36.5407981872558600,221.3056945800781200,-64.4817428588867200,24.7234706878662100,28.5676994323730470,146,125,100,86,65,13502,2149457078,2152322066,2154511122,2147639332,2148104393,2149006372,2150363355,2147372315,241,-2,8,39920
1346346030,5804,85.5899963378906200,24.8341999053955080,36.5472984313964840,219.6735992431640600,-67.8791732788086000,24.8295497894287100,28.6053009033203120,147,124,100,83,66,13499,2149722496,2152689682,2154910308,2147656850,2148181430,2149112832,2150483300,2147389083,3064,-3,8,34595
1346346156,5806,82.9800033569336000,25.0207996368408200,36.5032997131347660,217.5782012939453000,-73.7625198364257800,25.0134696960449220,28.6349601745605470,138,128,100,84,66,13499,2150255067,2153476306,2155815222,2147707108,2148347181,2149368896,2150786358,2147422747,1862,-2,8,22794
1346346211,5807,81.3199996948242200,25.2031993865966800,36.4808006286621100,217.0601959228515600,-78.1636734008789000,25.1512203216552730,28.6056098937988280,139,122,101,84,64,13501,2150552054,2153905673,2156294445,2147731730,2148440329,2149505984,2150948973,2147444553,1884,-2,8,40184
1346346457,5803,79.3700027465820300,25.3640003204345700,36.4156990051269500,221.3751983642578000,-84.4896926879882800,25.3494701385498050,28.3146305084228500,120,123,99,82,63,13503,2151205156,2154743670,2157025197,2147769755,2148661092,2149790153,2151198308,2147484388,2361,-2,9,6395
1346346548,5804,77.2799987792968800,25.5389003753662100,36.4042015075683600,224.6918029785156200,-90.1447830200195300,25.5269699096679700,28.0849990844726560,123,121,101,84,63,13499,2151820096,2155579218,2157870674,2147821952,2148908571,2150120384,2151539273,2147531172,3067,-3,8,30521
1346346806,5803,75.3000030517578100,25.8605995178222660,36.3487014770507800,223.4053955078125000,-100.4393997192382800,25.8507404327392580,28.0187606811523440,117,126,101,85,64,13489,2152368036,2156233764,2158396653,2147862299,2149106093,2150340891,2151773942,2147560009,2533,-3,8,53013
1346346885,5804,72.8700027465820300,25.9286994934082030,36.3404998779296900,223.8300018310547000,-102.5771026611328100,25.9180793762207030,27.9719600677490230,116,130,103,86,62,13487,2153269997,2157436169,2159585115,2147951222,2149452562,2150818340,2152260470,2147621312,2414,-2,8,28443
1346346940,5805,71.0699996948242200,26.0007991790771500,36.3314018249511700,223.7678985595703000,-104.6140975952148400,25.9822807312011720,27.9496803283691400,117,130,101,84,64,13481,2154044900,2158411995,2160510363,2148024356,2149756507,2151215945,2152654125,2147672347,2399,-3,8,39195
1346347007,5804,69.5500030517578100,26.0804004669189450,36.3446998596191400,224.0513000488281200,-105.7237014770507800,26.0172691345214840,27.9224605560302730,118,129,101,85,63,13478,2154844489,2159389915,2161427529,2148085824,2150061412,2151601956,2153005412,2147722011,1988,-2,9,5237
1346347122,5808,67.3799972534179700,26.3215007781982420,36.3138008117675800,224.7886962890625000,-114.8323974609375000,26.3048706054687500,27.7749004364013670,113,130,101,85,63,13475,2157034953,2161917257,2163517769,2148228489,2150900726,2152615168,2153885604,2147827364,2687,-3,8,14278
1346347225,5803,65.1299972534179700,26.4573001861572270,36.2877998352050800,226.6600952148437500,-118.5457000732421900,26.4223194122314450,27.6412296295166000,102,129,101,85,63,13481,2159387300,2164566363,2165745974,2148398637,2151865892,2153760045,2154856685,2147959826,2115,-2,8,11496
1346347304,5806,63.2599983215332000,26.5363998413085940,36.2537994384765600,226.6118927001953000,-121.6745986938476600,26.5213794708251950,27.6050605773925780,100,127,102,85,64,13481,2160977581,2166387492,2167376137,2148550390,2152567067,2154612534,2155597842,2148055588,1935,-2,8,57063
1346347406,5802,61.4599990844726560,26.6417999267578120,36.2122993469238300,226.5901031494140600,-125.1929016113281200,26.6328697204589840,27.5628204345703120,93,128,102,86,63,13484,2163168228,2168744429,2169356342,2148743981,2153569097,2155762633,2156571117,2148183369,1019,-2,9,58819
1346347461,5803,60.3899993896484400,26.8066005706787100,36.2084999084472660,228.5686950683593800,-129.8795928955078000,26.7815494537353500,27.4134597778320300,90,128,101,85,62,13475,2164387840,2170074797,2170489069,2148869376,2154247744,2156542555,2157211821,2148260251,619,-2,8,19384
1346347600,5807,58.6199989318847660,26.8980998992919920,36.2019996643066400,232.6119995117187500,-133.1302032470703000,26.8847904205322270,27.1891708374023440,93,130,105,87,61,13469,2166183680,2172209746,2172532617,2149110299,2155461906,2157953728,2158398381,2148414034,3552,-2,8,10886
1346347726,5807,55.9900016784668000,26.9941005706787100,36.1841011047363300,234.3928070068359400,-137.7608947753906200,27.0320205688476560,27.0527591705322270,87,132,103,86,61,13462,2170417901,2176861531,2176634596,2149622473,2157990061,2160715958,2160593060,2148713188,2583,-3,8,38274
1346347868,5801,53.3699989318847660,27.3141994476318360,36.1377983093261700,236.2765045166015600,-145.7068939208984400,27.2851295471191400,26.8723392486572270,84,134,103,87,60,13453,2174221010,2180862162,2180037312,2150087908,2160457170,2163282761,2162539602,2148983085,2035,-2,9,27969
1346347902,5805,53.1699981689453100,27.3286991119384770,36.1341018676757800,236.7335968017578000,-146.5541992187500000,27.3121604919433600,26.8419609069824220,86,135,106,86,61,13451,2174578084,2181235904,2180346377,2150113545,2160683684,2163526857,2162709056,2149005632,2185,-2,8,33680
1346348064,5806,51.6899986267089840,27.8012008666992200,36.0507011413574200,237.7527008056640600,-158.9669036865234400,27.7088298797607420,26.6467094421386720,84,135,105,88,59,13429,2177950363,2184786980,2183403538,2150588763,2163458944,2166359597,2164774555,2149285540,1576,-2,8,33977
1346348202,5804,49.9599990844726560,27.8994007110595700,36.0371017456054700,237.0809020996093800,-164.6643066406250000,27.8913993835449220,26.6071605682373050,88,134,105,88,60,13439,2179651163,2186700306,2185227803,2150944868,2164722980,2167717357,2165857097,2149457014,1987,-2,8,40784
1346348355,5802,47.9199981689453100,27.9902000427246100,36.0191001892089840,236.3020019531250000,-166.6352996826172000,27.9546298980712900,26.6172904968261720,78,132,104,89,57,13445,2182773184,2190140626,2188450002,2151570176,2167868818,2170911030,2168234523,2149798025,2194,-1,8,57903
1346348664,5809,45.8499984741210940,28.2247009277343750,35.9813003540039060,233.8670043945312500,-174.7149963378906200,28.2142391204834000,26.6268291473388670,72,129,103,86,58,13450,2191605028,2200412763,2198135744,2153107373,2176098816,2179414400,2174571757,2150665837,2459,-2,8,18008
1346348769,5804,43.9000015258789060,28.3852005004882800,35.9477996826171900,232.2678985595703000,-179.7830963134765600,28.3774204254150400,26.6365699768066400,67,128,102,86,56,13469,2195569234,2204899501,2202396672,2154019821,2182004653,2185008594,2178286052,2151154212,2759,-2,8,471
1346348874,5808,41.8499984741210940,28.4094009399414060,35.9404983520507800,231.2785949707031200,-180.9212036132812500,28.4141006469726560,26.6670799255371100,67,129,103,87,57,13461,2200308708,2210276370,2207621869,2155394843,2187185673,2190096493,2181937718,2151762313,2794,-3,8,50606
1346348954,5804,39.6800003051757800,28.4169998168945300,35.9384002685546900,230.5312042236328000,-181.1493988037109400,28.4214591979980470,26.6977806091308600,68,120,103,85,56,13459,2206016384,2216725622,2213964955,2157297225,2195397888,2197921828,2187212516,2152607040,3177,-2,9,35117